Amelia, Louisiana
Current Conditions -  °F | °C
As of 9:15 PM on Saturday 20 Dec 2014 (Local Time) from KPTN Reporting Station
Overcast Overcast  
Wind Chill: 50°   Ceiling: 600
Heat Index: 50°   Visibility: 10mi
Dew Point: 46°   Wind: 10mph
Humidity: 87%   Direction: 50°NE
Pressure: 30.17"   Gusts: NA
Location:  29.67°N, 91.1°W
Report Text: KPTN 210315Z AUTO 05009KT 10SM OVC006 10/08 A3017 RMK AO1
Loading
Personal Weather Stations






























Interactive Weather Map New forecast layout! Learn more

10-Day Weather Forecast

Advertisements
Track Severe Weather on mobile